User: anonymous   Login
Location: ??????????
(31.2156°N, 29.9553°E)
Time: 05:40:09
(UTC+00:00)
Language:

Cosmos 1470 Rocket - Orbit

View from above orbital plane
View from above orbital plane
View from above satellite
View from above satellite

Ground track
Ground track

The orbit data is extracted from the following two-line orbital elements,

1 14148U 83061B   21127.93418784  .00000059  00000-0  42923-5 0  9992
2 14148  82.5218  18.7759 0020878 333.5778  37.0814 14.83377097 24327
Epoch (UTC): 07 May 2021 22:25:13
Eccentricity: 0.0020878
inclination: 82.5218°
perigee height: 604 km
apogee height: 633 km
right ascension of ascending node: 18.7759°
argument of perigee: 333.5778°
revolutions per day: 14.83377097
mean anomaly at epoch: 37.0814°
orbit number at epoch: 2432

The dashed part of the orbit path shows where the satellite is in the earth's shadow,  

DLR